Location: *
(55.5817°S, 142.4781°W)
Time: 08:11:58
(UTC+00:00)

Tsikada Rocket - Pass Details

Date: 29 April 2025
Orbit: 956 x 1009 km, 82.9° (Epoch: 18 May)

Event Time Altitude Azimuth Distance (km) Brightness Sun altitude
Rises 13:51:12 0° 193° (SSW) 3,782 7.1 -25.5°
Reaches altitude 10° 13:53:46 10° 193° (SSW) 2,828 6.4 -25.2°
Maximum altitude 14:00:18 82° 279° (W) 1,039 3.9 -24.3°
Drops below altitude 10° 14:06:45 10° 4° (N) 2,793 6.3 -23.4°
Sets 14:09:16 0° 5° (N) 3,731 7.0 -23.0°
